| time (UTC) | temp F | wind direction | speed MPH | gust MPH | rain 1hr in | rain 24hr in | rain mn in | humidity % | barometer mb |
| 20260906012438 | 45 | 307 | 11.0 | 14.0 | 0.00 | 0.00 | 0.00 | 100 | |
| 20260906010436 | 45 | 348 | 3.0 | 10.0 | 0.00 | 0.00 | 0.00 | 100 | |
| 20260906004434 | 45 | 2 | 3.0 | 12.0 | 0.00 | 0.00 | 0.00 | 100 | |
| 20260906002433 | 45 | 354 | 3.0 | 14.0 | 0.00 | 0.00 | 0.00 | 100 | |
| 20260906000433 | 45 | 313 | 3.0 | 8.0 | 0.00 | 0.00 | 0.00 | 100 | |
| 20260905234431 | 45 | 316 | 3.0 | 14.0 | 0.00 | 0.00 | 0.00 | 100 | |
| 20260905232430 | 45 | 1 | 4.0 | 11.0 | 0.00 | 0.00 | 0.00 | 100 | |
| 20260905230429 | 46 | 327 | 5.0 | 13.0 | 0.00 | 0.00 | 0.00 | 100 | |
| 20260905224428 | 46 | 330 | 9.0 | 20.0 | 0.00 | 0.00 | 0.00 | 100 | |
| 20260905222426 | 46 | 291 | 11.0 | 25.0 | 0.00 | 0.00 | 0.00 | 100 | |
| 20260905220425 | 46 | 293 | 11.0 | 24.0 | 0.00 | 0.00 | 0.00 | 100 | |
| 20260905214424 | 47 | 306 | 13.0 | 22.0 | 0.00 | 0.00 | 0.00 | 100 | |
| 20260905212423 | 47 | 302 | 13.0 | 20.0 | 0.00 | 0.00 | 0.00 | 100 | |
| 20260905210422 | 47 | 334 | 5.0 | 17.0 | 0.00 | 0.00 | 0.00 | 100 | |
| 20260905204421 | 46 | 316 | 9.0 | 18.0 | 0.00 | 0.00 | 0.00 | 100 | |
| 20260905202420 | 47 | 329 | 5.0 | 21.0 | 0.00 | 0.00 | 0.00 | 100 | |
| 20260905200419 | 47 | 310 | 10.0 | 22.0 | 0.00 | 0.00 | 0.00 | 100 | |
| 20260905194417 | 47 | 302 | 16.0 | 18.0 | 0.00 | 0.00 | 0.00 | 100 | |
| 20260905192416 | 47 | 291 | 10.0 | 18.0 | 0.00 | 0.00 | 0.00 | 100 | |
| 20260905190415 | 47 | 316 | 14.0 | 17.0 | 0.00 | 0.00 | 0.00 | 100 | |
| 20260905184414 | 46 | 313 | 7.0 | 14.0 | 0.00 | 0.00 | 0.00 | 100 | |
| 20260905182413 | 46 | 337 | 7.0 | 17.0 | 0.00 | 0.00 | 0.00 | 100 | |
| 20260905180412 | 46 | 305 | 10.0 | 16.0 | 0.00 | 0.00 | 0.00 | 100 | |
| 20260905174411 | 47 | 275 | 11.0 | 20.0 | 0.00 | 0.00 | 0.00 | 100 | |
| 20260905172409 | 47 | 323 | 5.0 | 17.0 | 0.00 | 0.00 | 0.00 | 100 | |
| 20260905170408 | 47 | 310 | 11.0 | 17.0 | 0.00 | 0.00 | 0.00 | 100 | |
| 20260905164407 | 49 | 293 | 9.0 | 19.0 | 0.00 | 0.00 | 0.00 | 100 | |
| 20260905162406 | 48 | 324 | 11.0 | 20.0 | 0.00 | 0.00 | 0.00 | 100 | |
| 20260905160405 | 47 | 313 | 8.0 | 16.0 | 0.00 | 0.00 | 0.00 | 100 | |
| 20260905154404 | 46 | 310 | 12.0 | 17.0 | 0.00 | 0.00 | 0.00 | 100 | |
| 20260905152403 | 46 | 309 | 9.0 | 23.0 | 0.00 | 0.00 | 0.00 | 100 | |
| 20260905144400 | 46 | 303 | 9.0 | 14.0 | 0.00 | 0.00 | 0.00 | 100 | |
| 20260905142359 | 47 | 300 | 6.0 | 9.0 | 0.00 | 0.00 | 0.00 | 100 | |
| 20260905140358 | 48 | 298 | 7.0 | 9.0 | 0.00 | 0.00 | 0.00 | 100 | |
| 20260905134358 | 48 | 307 | 4.0 | 10.0 | 0.00 | 0.00 | 0.00 | 100 | |
| 20260905132356 | 48 | 306 | 1.0 | 8.0 | 0.00 | 0.00 | 0.00 | 100 | |
| 20260905130355 | 49 | 296 | 6.0 | 11.0 | 0.00 | 0.00 | 0.00 | 100 | |
| 20260905124353 | 49 | 324 | 2.0 | 7.0 | 0.00 | 0.00 | 0.00 | 100 | |
| 20260905122353 | 51 | 2 | 4.0 | 12.0 | 0.00 | 0.00 | 0.00 | 100 | |
| 20260905120351 | 49 | 300 | 5.0 | 12.0 | 0.00 | 0.00 | 0.00 | 100 | |
| 20260905114350 | 49 | 293 | 8.0 | 16.0 | 0.00 | 0.00 | 0.00 | 100 | |
| 20260905112349 | 49 | 313 | 8.0 | 19.0 | 0.00 | 0.00 | 0.00 | 100 | |
| 20260905110348 | 53 | 347 | 5.0 | 14.0 | 0.00 | 0.00 | 0.00 | 100 | |
| 20260905104347 | 51 | 28 | 4.0 | 16.0 | 0.00 | 0.00 | 0.00 | 100 | |
| 20260905102346 | 49 | 296 | 13.0 | 19.0 | 0.00 | 0.00 | 0.00 | 100 | |
| 20260905100344 | 49 | 299 | 15.0 | 23.0 | 0.00 | 0.00 | 0.00 | 100 | |
| 20260905094343 | 49 | 326 | 18.0 | 25.0 | 0.00 | 0.00 | 0.00 | 100 | |
| 20260905092342 | 49 | 331 | 9.0 | 21.0 | 0.00 | 0.00 | 0.00 | 100 | |
| 20260905090341 | 48 | 289 | 13.0 | 20.0 | 0.00 | 0.00 | 0.00 | 100 | |
| 20260905084340 | 48 | 326 | 14.0 | 21.0 | 0.00 | 0.00 | 0.00 | 100 | |
| 20260905082339 | 45 | 309 | 3.0 | 6.0 | 0.00 | 0.00 | 0.00 | 100 | |
| 20260905080338 | 46 | 270 | 0.0 | 0.0 | 0.00 | 0.00 | 0.00 | 100 | |
| 20260905074337 | 46 | 295 | 0.0 | 3.0 | 0.00 | 0.00 | 0.00 | 100 | |
| 20260905072335 | 47 | 322 | 0.0 | 7.0 | 0.00 | 0.00 | 0.00 | 100 | |
| 20260905070334 | 47 | 324 | 3.0 | 4.0 | 0.00 | 0.00 | 0.00 | 100 | |
| 20260905064333 | 49 | 344 | 3.0 | 9.0 | 0.00 | 0.00 | 0.00 | 100 | |
| 20260905062332 | 50 | 333 | 0.0 | 4.0 | 0.00 | 0.00 | 0.00 | 100 | |
| 20260905060331 | 50 | 347 | 1.0 | 15.0 | 0.00 | 0.00 | 0.00 | 100 | |
| 20260905054330 | 50 | 5 | 4.0 | 11.0 | 0.00 | 0.00 | 0.00 | 100 | |
| 20260905052328 | 52 | 322 | 7.0 | 11.0 | 0.00 | 0.00 | 0.00 | 100 | |
| 20260905050327 | 52 | 271 | 5.0 | 9.0 | 0.00 | 0.00 | 0.00 | 100 | |
| 20260905044330 | 52 | 302 | 7.0 | 12.0 | 0.00 | 0.00 | 0.00 | 100 | |
| 20260905042325 | 53 | 288 | 14.0 | 14.0 | 0.00 | 0.00 | 0.00 | 100 | |
| 20260905040324 | 53 | 336 | 0.0 | 6.0 | 0.00 | 0.00 | 0.00 | 100 | |
| 20260905034323 | 53 | 0 | 0.0 | 7.0 | 0.00 | 0.00 | 0.00 | 100 | |
| 20260905032322 | 54 | 302 | 6.0 | 8.0 | 0.00 | 0.00 | 0.00 | 100 | |
| 20260905030321 | 54 | 274 | 3.0 | 9.0 | 0.00 | 0.00 | 0.00 | 100 | |
| 20260905024319 | 55 | 299 | 5.0 | 8.0 | 0.00 | 0.00 | 0.00 | 100 | |
| 20260905022318 | 56 | 299 | 6.0 | 12.0 | 0.00 | 0.00 | 0.00 | 100 | |
| 20260905020317 | 56 | 282 | 3.0 | 9.0 | 0.00 | 0.00 | 0.00 | 100 | |
| 20260905014316 | 56 | 327 | 4.0 | 11.0 | 0.00 | 0.00 | 0.00 | 100 |